Regional Weather Roundup
Issued by NWS State College, PA

Home | Current Version | Previous Version | Graphics & Text | Print | Product List | Glossary On
Versions: 1 2 3 4 5 6 7 8 9 10 11 12 13 14 15 16 17 18 19 20 21 22 23 24 25 26 27 28 29 30 31 32 33 34 35 36 37 38 39 40 41 42 43 44 45 46 47 48 49 50
700
ASUS41 KCTP 280303
RWRCTP

REGIONAL WEATHER ROUNDUP
NATIONAL WEATHER SERVICE STATE COLLEGE PA
1100 PM EDT TUE JUN 27 2017

Note: "fair" indicates few or no clouds below 12,000 feet with no
significant weather and/or obstructions to visibility.

* = STATION THAT DOES NOT REPORT PRECIPITATION /E.G. RAIN...SNOW...ETC/
    THUNDER OR FOG.

PAZ002>004-007>009-013>016-020>023-029>032-280400-
WESTERN PENNSYLVANIA

CITY           SKY/WX    TMP DP  RH WIND       PRES   REMARKS
ERIE           MOCLDY    59  48  67 S5        30.08R
MEADVILLE      CLEAR     56  47  71 S3        30.11R
FRANKLIN*      CLEAR     50  45  81 SW3       30.12R
NEW CASTLE     FAIR      50  49  96 SW3       30.12R
BEAVER COUNTY  NOT AVBL
BUTLER*        CLEAR     54  46  76 CALM      30.12R
PITTSBURGH INT CLEAR     58  49  72 CALM      30.11R
PITTSBURGH     CLEAR     61  43  51 W6        30.11R
INDIANA*       CLEAR     54  50  87 CALM      30.14S
LATROBE        CLEAR     55  52  88 S3        30.13R
WASHINGTON CO* CLEAR     50  46  87 CALM      30.14R
$$

PAZ004>006-010>012-017>019-024>028-033>037-041-042-045-046-049>053-280400-
CENTRAL PENNSYLVANIA

CITY           SKY/WX    TMP DP  RH WIND       PRES   REMARKS
BRADFORD       CLEAR     46  46 100 CALM      30.10R
DUBOIS         CLEAR     51  46  83 SW3       30.11R
CLEARFIELD     CLEAR     53  50  89 CALM      30.11R
JOHNSTOWN      CLEAR     54  46  74 NW6       30.13R
ALTOONA        CLEAR     56  49  77 W3        30.12R
STATE COLLEGE  CLEAR     58  48  67 W8        30.10S
WILLIAMSPORT   CLEAR     59  55  87 CALM      30.06R
SELINSGROVE    CLOUDY    59  54  83 CALM      30.08R
FT INDIANTOWN  CLEAR     64  48  56 W9        30.07R
CAPITAL CITY   CLEAR     62  49  62 W5        30.07R
HARRISBURG     PTCLDY    64  51  62 NW8       30.07R
YORK           CLEAR     59  50  72 W5        30.07R
$$

PAZ038>040-043-044-047-048-054-055-060>062-067>071-280400-
EASTERN PENNSYLVANIA

CITY           SKY/WX    TMP DP  RH WIND       PRES   REMARKS
SCRANTON       CLOUDY    62  48  60 SW5       30.04R
MOUNT POCONO   CLEAR     53  46  77 NW9       30.04R
ALLENTOWN      CLEAR     64  46  52 W8        30.03R
QUAKERTOWN*    CLEAR     64  48  55 NW5       30.04R
READING        CLEAR     62  50  64 NW9       30.04R
LANCASTER      CLEAR     64  50  60 NW8       30.06R
COATESVILLE    CLEAR     63  48  59 NW10      30.07R
POTTSTOWN      CLEAR     63  47  55 NW6       30.06R
BLUE BELL      CLEAR     64  46  52 W3        30.04R
DOYLESTOWN     CLEAR     65  47  52 NW8       30.02R
WILLOW GROVE   NOT AVBL
NORTH PHILA    CLEAR     69  47  45 NW7       30.03R
PHILADELPHIA   PTCLDY    71  47  42 NW10G21   30.03R
$$




USA.gov is the U.S. government's official web portal to all federal, state and local government web resources and services.